{"data":{"norad_id":62320,"epoch":"2026-09-21T13:07:58.365984Z","epoch_age_seconds":86515,"freshness":"FRESH","line1":"1 62320U 24239V   26264.54720331  .00021246  00000+0  63817-3 0  9990","line2":"2 62320  53.1594 350.4753 0000822  91.8199 268.2897 15.34399454 99566","mean_motion":15.34399454,"eccentricity":8.22e-5,"inclination_deg":53.1594,"raan_deg":350.4753,"arg_perigee_deg":91.8199,"mean_anomaly_deg":268.2897,"bstar":0.00063817,"rev_number":9956,"period_min":93.847791476078,"perigee_km":462.14254583351,"apogee_km":463.26718023579,"semimajor_km":6840.8418630347,"source":"CELESTRAK","updated_at":"2026-09-22T09:00:49.574670Z"}}